(136119) = 2000 YH136 = 2003 KH19

Discovered at Socorro on 2003-05-29 by LINEAR.

Orbit

Orbit type: Main Belt

Note: WebGL enabled browser required.

epoch2024-03-31.0
epoch JD2460400.5
perihelion date2023-11-11.59833
perihelion JD2460260.09833
argument of perihelion (°)231.53746
ascending node (°)82.99190
inclination (°)8.03463
eccentricity0.2092075
perihelion distance (AU)1.9915968
Tisserand w.r.t. Jupiter3.4
ΔV w.r.t. Earth (km/sec)9.2
semimajor axis (AU)2.5184823
mean anomaly (°)34.62324
mean daily motion (°/day)0.24660140
aphelion distance (AU)3.045
period (years)4.0
P-vector [x]0.69364579
P-vector [y]-0.60967049
P-vector [z]-0.38361103
Q-vector [x]0.70683113
Q-vector [y]0.67867245
Q-vector [z]0.19948299
absolute magnitude15.84
phase slope0.15
uncertainty0
referenceMPEC 2024-E123
observations used519
oppositions20
arc length (days)11208
first opposition used1992
last opposition used2023
residual rms (arc-secs)0.75
perturbers coarse indicatorM-v
perturbers precise indicator003Ek
first observation date used1992-11-26.0
last observation date used2023-08-04.0
computer nameMPCLINUX
JD of orbit computation2456819.422662
perihelion JD uncertainty (days)1.1989E-04
argument of perihelion uncertainty (°)4.5458E-05
ascending node uncertainty (°)3.4706E-05
inclination uncertainty (°)1.2131E-05
eccentricity uncertainty 7.0708E-08
perihelion distance uncertainty (AU)1.8016E-07
Minimum Orbit Intersection Distances (in AU)
for orbit epoch: 2460200.5, reference: E2024-A48
Mercury1.56082
Venus1.26534
Earth0.98836
Mars0.60374
Jupiter2.24909
Saturn6.10639
Uranus15.4763
Neptune27.1991

Observations

528 total observations over interval: 1992 11 26.44303 – 2023 08 04.100818
These data are available for download (format description).

Date (UT) J2000 RA J2000 Dec Magn Location Ref
1992 11 26.44303 04 54 27.93 +19 50 33.0 19.7 V 691 – Steward Observatory, Kitt Peak-Spacewatch MPS 175710
1992 11 26.46753 04 54 26.28 +19 50 34.4   691 – Steward Observatory, Kitt Peak-Spacewatch MPS 175710
1992 11 26.49029 04 54 24.76 +19 50 35.2   691 – Steward Observatory, Kitt Peak-Spacewatch MPS 175710
1999 06 15.23851 16 59 55.66 -21 47 54.4 18.2   704 – Lincoln Laboratory ETS, New Mexico MPS 165065
1999 06 15.25069 16 59 54.87 -21 47 57.0 18.7   704 – Lincoln Laboratory ETS, New Mexico MPS 165065
1999 06 15.26283 16 59 54.07 -21 47 58.3 18.7   704 – Lincoln Laboratory ETS, New Mexico MPS 165065
1999 06 15.27501 16 59 53.26 -21 48 02.0 18.8   704 – Lincoln Laboratory ETS, New Mexico MPS 165065
1999 06 15.28715 16 59 52.47 -21 48 03.5 18.8   704 – Lincoln Laboratory ETS, New Mexico MPS 165065
2000 11 21.36150 04 57 22.19 +19 36 55.6 18.9   704 – Lincoln Laboratory ETS, New Mexico MPS 83297
2000 11 21.37621 04 57 21.37 +19 36 55.7 20.0   704 – Lincoln Laboratory ETS, New Mexico MPS 83297
2000 11 21.39091 04 57 20.44 +19 36 58.1 19.8   704 – Lincoln Laboratory ETS, New Mexico MPS 83297
2000 11 21.40564 04 57 19.40 +19 36 57.2 19.8   704 – Lincoln Laboratory ETS, New Mexico MPS 83297
2000 12 23.15152 04 24 18.65 +20 05 48.9 20.5 V 691 – Steward Observatory, Kitt Peak-Spacewatch MPS 25539
2000 12 23.17349 04 24 17.51 +20 05 50.5 20.9 V 691 – Steward Observatory, Kitt Peak-Spacewatch MPS 25539
2000 12 23.19553 04 24 16.33 +20 05 51.7 20.2 V 691 – Steward Observatory, Kitt Peak-Spacewatch MPS 25539
2000 12 29.16489 04 19 39.97 +20 12 44.6 19.2 R 699 – Lowell Observatory-LONEOS MPS 25539
2000 12 29.18912 04 19 38.85 +20 12 47.2   699 – Lowell Observatory-LONEOS MPS 25539
2000 12 29.21329 04 19 37.73 +20 12 48.2   699 – Lowell Observatory-LONEOS MPS 25539
2000 12 29.23750 04 19 36.66 +20 12 50.3   699 – Lowell Observatory-LONEOS MPS 25539
2002 02 12.30162 10 33 11.32 +20 49 00.1 19.2   704 – Lincoln Laboratory ETS, New Mexico MPS 83411
2002 02 12.31575 10 33 10.56 +20 49 05.8 20.0   704 – Lincoln Laboratory ETS, New Mexico MPS 83411
2002 02 12.32990 10 33 09.76 +20 49 11.5 19.3   704 – Lincoln Laboratory ETS, New Mexico MPS 83411
2002 02 12.34405 10 33 08.95 +20 49 17.7 19.7   704 – Lincoln Laboratory ETS, New Mexico MPS 83411
2002 02 12.35822 10 33 08.24 +20 49 23.7 19.5   704 – Lincoln Laboratory ETS, New Mexico MPS 83411
2003 05 29.32735 17 12 55.29 -20 33 08.7 18.5   704 – Lincoln Laboratory ETS, New Mexico MPS 80314
2003 05 29.34843 17 12 54.03 -20 33 13.0 18.7   704 – Lincoln Laboratory ETS, New Mexico MPS 80314
2003 05 29.35889 17 12 53.44 -20 33 15.5 18.1   704 – Lincoln Laboratory ETS, New Mexico MPS 80314
2003 05 29.36936 17 12 52.92 -20 33 17.8 18.6   704 – Lincoln Laboratory ETS, New Mexico MPS 80314
2003 06 02.26950 17 09 08.08 -20 46 47.5 18.2   704 – Lincoln Laboratory ETS, New Mexico MPS 80314
2003 06 02.28026 17 09 07.39 -20 46 51.1 18.2   704 – Lincoln Laboratory ETS, New Mexico MPS 80314
2003 06 02.29107 17 09 06.73 -20 46 53.1 18.2   704 – Lincoln Laboratory ETS, New Mexico MPS 80314
2003 06 02.30189 17 09 06.05 -20 46 55.8 18.4   704 – Lincoln Laboratory ETS, New Mexico MPS 80314
2003 06 02.31293 17 09 05.38 -20 46 57.6 18.2   704 – Lincoln Laboratory ETS, New Mexico MPS 80314
2003 06 20.25753 16 50 38.99 -21 51 51.1 20.7 R 701 – Junk Bond Observatory, Sierra Vista MPS 81587
2003 06 20.30179 16 50 36.27 -21 52 01.5 19.2 R 701 – Junk Bond Observatory, Sierra Vista MPS 81587
2003 06 23.21022 16 47 49.07 -22 02 42.3 19.5 R 701 – Junk Bond Observatory, Sierra Vista MPS 81587
2003 06 23.24766 16 47 46.78 -22 02 52.4 22.5 R 701 – Junk Bond Observatory, Sierra Vista MPS 81587
2003 06 25.27929 16 45 55.13 -22 10 20.7 18.7   704 – Lincoln Laboratory ETS, New Mexico MPS 81587
2003 06 25.28956 16 45 54.64 -22 10 22.7 18.6   704 – Lincoln Laboratory ETS, New Mexico MPS 81587
2003 06 25.29964 16 45 54.00 -22 10 24.5 18.2   704 – Lincoln Laboratory ETS, New Mexico MPS 81587
2003 06 25.30974 16 45 53.45 -22 10 27.7 18.3   704 – Lincoln Laboratory ETS, New Mexico MPS 81587
2003 07 08.29980 16 36 29.84 -22 58 58.8 19.1   644 – Palomar Mountain/NEAT MPS 82223
2003 07 08.32102 16 36 29.11 -22 59 03.2 19.4   644 – Palomar Mountain/NEAT MPS 82223
2003 07 08.34189 16 36 28.44 -22 59 07.8 19.8   644 – Palomar Mountain/NEAT MPS 82223
2003 07 15.34716 16 33 39.67 -23 26 09.9 19.3   608 – Haleakala-AMOS MPS 82223
2003 07 15.35781 16 33 39.45 -23 26 12.2 20.2   608 – Haleakala-AMOS MPS 82223
2003 07 15.36832 16 33 39.23 -23 26 14.8 19.7   608 – Haleakala-AMOS MPS 82223
2004 12 10.27026 04 38 06.91 +19 59 09.1 18.8   704 – Lincoln Laboratory ETS, New Mexico MPS 121729
2004 12 10.28293 04 38 06.04 +19 59 10.2 19.5   704 – Lincoln Laboratory ETS, New Mexico MPS 121729
2004 12 10.32049 04 38 03.61 +19 59 11.9 19.3   704 – Lincoln Laboratory ETS, New Mexico MPS 121729
2004 12 20.22088 04 28 08.52 +20 08 20.3 19.8   704 – Lincoln Laboratory ETS, New Mexico MPS 122694
2004 12 20.24990 04 28 06.96 +20 08 22.6 19.8   704 – Lincoln Laboratory ETS, New Mexico MPS 122694
2004 12 20.26332 04 28 06.17 +20 08 23.1 20.0   704 – Lincoln Laboratory ETS, New Mexico MPS 122694
2006 02 22.22692 10 24 36.32 +21 50 11.6 21.2 V 703 – Catalina Sky Survey MPS 163778
2006 02 22.23980 10 24 35.53 +21 50 15.2 20.1 V 703 – Catalina Sky Survey MPS 163778
2006 02 22.24808 10 24 35.06 +21 50 18.5 20.3 V 703 – Catalina Sky Survey MPS 163778
2006 02 22.25639 10 24 34.56 +21 50 20.6 20.3 V 703 – Catalina Sky Survey MPS 163778
2006 03 03.22158 10 16 09.20 +22 38 14.1 19.8 R 699 – Lowell Observatory-LONEOS MPS 166043
2006 03 03.24712 10 16 08.03 +22 38 19.5   699 – Lowell Observatory-LONEOS MPS 166043
2006 03 03.27270 10 16 06.59 +22 38 26.5   699 – Lowell Observatory-LONEOS MPS 166043
2006 03 03.30751 10 16 04.60 +22 38 36.1   699 – Lowell Observatory-LONEOS MPS 166043
2007 06 20.26504 16 53 07.72 -22 01 14.9 18.4   704 – Lincoln Laboratory ETS, New Mexico MPS 211349
2007 06 20.27505 16 53 07.18 -22 01 17.8 18.6   704 – Lincoln Laboratory ETS, New Mexico MPS 211349
2007 06 20.28511 16 53 06.51 -22 01 19.6 18.8   704 – Lincoln Laboratory ETS, New Mexico MPS 211349
2007 06 20.29516 16 53 05.92 -22 01 22.0 18.7   704 – Lincoln Laboratory ETS, New Mexico MPS 211349
2007 06 20.30516 16 53 05.32 -22 01 23.9 18.9   704 – Lincoln Laboratory ETS, New Mexico MPS 211349
2008 10 22.43311 05 19 41.55 +19 12 10.0 19.9 V G96 – Mt. Lemmon Survey MPS 261168
2008 10 22.44372 05 19 41.37 +19 12 10.6 19.4 V G96 – Mt. Lemmon Survey MPS 261168
2008 10 22.44904 05 19 41.26 +19 12 10.7 19.9 V G96 – Mt. Lemmon Survey MPS 261168
2008 11 07.32745 05 11 39.94 +19 29 00.4 19.4 V G96 – Mt. Lemmon Survey MPS 264427
2008 11 07.33439 05 11 39.62 +19 29 00.9 19.6 V G96 – Mt. Lemmon Survey MPS 264427
2008 11 07.34134 05 11 39.30 +19 29 01.3 19.5 V G96 – Mt. Lemmon Survey MPS 264427
2008 11 07.34830 05 11 38.97 +19 29 01.7 19.4 V G96 – Mt. Lemmon Survey MPS 264427
2008 11 18.33174 05 02 07.35 +19 40 25.4 19.4 V 691 – Steward Observatory, Kitt Peak-Spacewatch MPS 266188
2008 11 18.34937 05 02 06.28 +19 40 26.4 19.5 V 691 – Steward Observatory, Kitt Peak-Spacewatch MPS 266188
2008 11 18.36700 05 02 05.17 +19 40 27.5 19.5 V 691 – Steward Observatory, Kitt Peak-Spacewatch MPS 266188
2008 11 24.05027 04 56 15.00 +19 46 00.0 20.0 V J75 – OAM Observatory, La Sagra MPS 267250
2008 11 24.06354 04 56 14.18 +19 46 01.0 19.3 V J75 – OAM Observatory, La Sagra MPS 267250
2008 11 24.07676 04 56 13.37 +19 46 01.1 19.2 V J75 – OAM Observatory, La Sagra MPS 267250
2008 11 24.25995 04 56 01.75 +19 46 11.9 19.3   704 – Lincoln Laboratory ETS, New Mexico MPS 267250
2008 11 24.27249 04 56 00.98 +19 46 13.7 19.4   704 – Lincoln Laboratory ETS, New Mexico MPS 267250
2008 11 24.28504 04 56 00.06 +19 46 14.2 19.7   704 – Lincoln Laboratory ETS, New Mexico MPS 267250
2008 11 24.29773 04 55 59.35 +19 46 14.3 19.9   704 – Lincoln Laboratory ETS, New Mexico MPS 267250
2008 11 26.06758 04 54 04.88 +19 47 54.0 18.6 V J75 – OAM Observatory, La Sagra MPS 268609
2008 11 26.08084 04 54 04.03 +19 47 55.2 19.1 V J75 – OAM Observatory, La Sagra MPS 268609
2008 11 26.09406 04 54 03.12 +19 47 55.4 19.3 V J75 – OAM Observatory, La Sagra MPS 268609
